This is the latest recevied weather packets stored in our database for station/object K5NWZ. If no packets are shown the sender has not sent any weather packets the latest 10 day(s).
| Time | Temp. | Humidity | Pressure | Rain* | Wind** | Luminosity | Snow |
|---|---|---|---|---|---|---|---|
| 1787433590 | 27.22° C | 51% | 1031.5 hPa | 0 mm | - | 69 W/m² | - |
| 1787433286 | 27.22° C | 51% | 1031.2 hPa | 0 mm | - | 68 W/m² | - |
| 1787432983 | 27.22° C | 50% | 1031.5 hPa | 0 mm | - | 68 W/m² | - |
| 1787432679 | 27.78° C | 50% | 1031.6 hPa | 0 mm | - | 68 W/m² | - |
| 1787432378 | 27.78° C | 50% | 1031.6 hPa | 0 mm | - | 66 W/m² | - |
| 1787432068 | 27.78° C | 49% | 1031.8 hPa | 0 mm | - | 65 W/m² | - |
| 1787431767 | 27.78° C | 48% | 1031.7 hPa | 0 mm | - | 67 W/m² | - |
| 1787431462 | 28.33° C | 48% | 1032 hPa | 0 mm | - | 70 W/m² | - |
| 1787431159 | 28.33° C | 48% | 1032.4 hPa | 0 mm | - | 72 W/m² | - |
| 1787430854 | 28.33° C | 47% | 1032.2 hPa | 0 mm | - | 76 W/m² | - |
| 1787430549 | 28.33° C | 47% | 1032.3 hPa | 0 mm | - | 82 W/m² | - |
| 1787430247 | 28.89° C | 46% | 1032.4 hPa | 0 mm | - | 92 W/m² | - |
| 1787429942 | 28.89° C | 46% | 1032.4 hPa | 0 mm | - | 103 W/m² | - |
| 1787429642 | 28.33° C | 47% | 1032.3 hPa | 0 mm | - | 112 W/m² | - |
| 1787429337 | 28.89° C | 45% | 1032.3 hPa | 0 mm | - | 119 W/m² | - |
| 1787429034 | 28.89° C | 45% | 1032.3 hPa | 0 mm | - | 130 W/m² | - |
| 1787428729 | 29.44° C | 45% | 1032.5 hPa | 0 mm | - | 142 W/m² | - |
| 1787428424 | 29.44° C | 45% | 1032.4 hPa | 0 mm | - | 153 W/m² | - |
| 1787428119 | 28.89° C | 45% | 1032.4 hPa | 0 mm | - | 164 W/m² | - |
| 1787427814 | 28.89° C | 46% | 1032.7 hPa | 0 mm | - | 187 W/m² | - |
| 1787427510 | 29.44° C | 44% | 1032.7 hPa | 0 mm | - | 224 W/m² | - |
| 1787427206 | 29.44° C | 43% | 1032.7 hPa | 0 mm | - | 280 W/m² | - |
| 1787426901 | 30.56° C | 43% | 1032.9 hPa | 0 mm | - | 366 W/m² | - |
| 1787426596 | 29.44° C | 44% | 1032.9 hPa | 0 mm | - | 661 W/m² | - |
| 1787426293 | 30° C | 44% | 1033 hPa | 0 mm | - | 899 W/m² | - |
* Rain latest hour (hover to see other rain measurements)
** Current wind speed in m/s (hover to see current wind gust speed)